This is the latest recevied weather packets stored in our database for station/object K1JO. If no packets are shown the sender has not sent any weather packets the latest 10 day(s).
| Time | Temp. | Humidity | Pressure | Rain* | Wind** | Luminosity | Snow |
|---|---|---|---|---|---|---|---|
| 1778025262 | 14.44° C | 76% | 1003.7 hPa | 0 mm | - | 0 W/m² | - |
| 1778024958 | 14.44° C | 76% | 1003.4 hPa | 0 mm | - | 0 W/m² | - |
| 1778024656 | 15° C | 76% | 1003.5 hPa | 0 mm | - | 1 W/m² | - |
| 1778024352 | 15° C | 75% | 1003.4 hPa | 0 mm | - | 1 W/m² | - |
| 1778024050 | 15° C | 75% | 1003.5 hPa | 0 mm | - | 1 W/m² | - |
| 1778023747 | 15° C | 75% | 1003.2 hPa | 0 mm | - | 2 W/m² | - |
| 1778023445 | 15° C | 76% | 1004.1 hPa | 0 mm | - | 2 W/m² | - |
| 1778023141 | 15° C | 75% | 1002.1 hPa | 0 mm | - | 4 W/m² | - |
| 1778022839 | 15° C | 75% | 1001.4 hPa | 0 mm | - | 9 W/m² | - |
| 1778022537 | 15° C | 74% | 1001.4 hPa | 0 mm | - | 12 W/m² | - |
| 1778022234 | 15.56° C | 74% | 1001.1 hPa | 0 mm | - | 16 W/m² | - |
| 1778021931 | 15.56° C | 73% | 1001.1 hPa | 0 mm | - | 18 W/m² | - |
| 1778021628 | 15.56° C | 72% | 1001.2 hPa | 0 mm | - | 23 W/m² | - |
| 1778021323 | 15.56° C | 72% | 1001 hPa | 0 mm | - | 30 W/m² | - |
| 1778021021 | 16.11° C | 71% | 1000.8 hPa | 0 mm | - | 37 W/m² | - |
| 1778020718 | 16.11° C | 71% | 1000.5 hPa | 0 mm | - | 45 W/m² | - |
| 1778020415 | 16.11° C | 71% | 1000.5 hPa | 0 mm | - | 52 W/m² | - |
| 1778020110 | 16.11° C | 71% | 1000.7 hPa | 0 mm | - | 59 W/m² | - |
| 1778019807 | 16.11° C | 71% | 1000.7 hPa | 0 mm | - | 62 W/m² | - |
| 1778019504 | 16.11° C | 70% | 1000.4 hPa | 0 mm | - | 61 W/m² | - |
| 1778019201 | 16.67° C | 70% | 1000.5 hPa | 0 mm | - | 63 W/m² | - |
| 1778018898 | 16.67° C | 70% | 1000.2 hPa | 0 mm | - | 65 W/m² | - |
| 1778018595 | 16.67° C | 70% | 1000.4 hPa | 0 mm | - | 65 W/m² | - |
| 1778018293 | 16.67° C | 69% | 1000.4 hPa | 0 mm | - | 68 W/m² | - |
| 1778017990 | 16.67° C | 70% | 1000.3 hPa | 0 mm | - | 76 W/m² | - |
* Rain latest hour (hover to see other rain measurements)
** Current wind speed in m/s (hover to see current wind gust speed)